FLOCK 3R-6 (43741 NORAD) Tracking and Keplerian Element Data

This shows tracking and keplerian element data for the satellite.

Feedback or suggestion? Click here.




ElementValue
Catalog43741
NameFLOCK 3R-6
Epoch Orbit162
Epoch Day343.80159218
Epoch Year2018
RAAN48.8039
Inclination97.4841
Eccentricity0.0016986
Argument of Perigee288.3102
Mean Anonmoly166.7186
Mean Motion15.26045055
Decay Rate2.161E-05
L11 43741U 18096Y 18343.80159218 .00002161 00000-0 86558-4 0 9992
L22 43741 97.4841 48.8039 0016986 288.3102 166.7186 15.26045055 1627

Live tracking and technical data element details for FLOCK 3R-6 (NORAD 43741). FLOCK 3R-6 can be tracked NOW for your location showing map with azimuth and elevation plus other details from your city location.

Track the satellite on the map from your city or location and see movement details for azimuth, elevation, latitude, longitude, range, height, and movement on the map or in text.







IsCatalogInMostPopularTable: catalog: 43741, numindb: 5
Update: records affected: 1



GetName: 43741 FLOCK 3R-6

Hit Count: updated at: Tue, 11 Dec 2018 02:21:12 GMT